Hlavní strana
METAR-TAF:

METAR-TAF

Letiště :

Fairfield Municipal Airport

Fairfield, Illinois, Spojené státy americké

zeměpisná šířka: 38-22-43N, zeměpisná délka: 088-24-46W, výška: 133 m

Aktuální stav počasí

Zpráva byla vytvořena před 11 minutami, v 19:55 UTC
Východní vítr 5 kt
Teplota 7°C
Vlhkost vzduchu 100%
Tlak 1004 hPa
Viditelnost: 4.0 km
Zataženo ve výšce 400 ft
kouřmo

METAR: KFWC 241955Z AUTO 10005KT 2 1/2SM BR OVC004 07/07 A2966 RMK AO1 T00720072

Čas: 14:06 (20:06 UTC)


TAF: chybějící

Stav a předpovědi počasí z více než 4 000 letišť (zprávy METAR a TAF).

Červené a žluté tečky na mapě představují dostupné meteorologické stanice.

Když kurzor umístíte na tečku, zobrazí se název stanice.

Pak kliknutím zobrazíte stav a předpověď počasí.

Chcete-li změnit mapu, kliknutím na zelené tlačítko se znaménkem +mapu přiblížíte, kliknutím na zelené tlačítko se znaménkem – mapu oddálíte a kliknutím na zelené šipky přejdete na sousední mapy.


METAR-TAF: